Showing default

KUIPER-00008, 63724

Orbit data source: Space-Track

KUIPER-00008, 63724 is a payload satellite owned by Kuiper Systems (US) in LEO that was launched on Mon, 28 Apr 2025 UTC via an ATLAS V 551 launch vehicle from the Air Force Eastern Test Range (AFETR). Payload-class satellites include a variety of spacecraft equipped with specific instruments for various scientific and technological missions. These include communications satellites like Starlink; space stations such as the ISS; scientific satellites like the Hubble; Earth observation satellites from companies like Planet Labs, Umbra, and HawkEye 360; GPS; miniature CubeSats for education and research; and military/defense satellites.

Loading next visibility...
Identifier
63724, 2025-088A
Orbit
LEO
Country
Flag of USUS
Related business
Manufacturer
Kuiper Systems
Mission
Operational Commercial Communications
Bus & Motor
KUIPER, Unknown motor
Mass
~490 kg wet, ~490 kg dry
Launch date (UTC)
2025-04-28 (8 months ago)
Launch vehicle
ATLAS V 551
Launch site
Air Force Eastern Test Range (AFETR)
Object type
Payload
Rocket body
Debris
Shape & HBR
Box + 2 Pan, 3.4 m
Radar Cross Section
2.326 m², Large (>1 m²)

Expand to show TLE details & history
Last TLE update: 1 day ago

TLE from 1 day ago
0 KUIPER-00008
1 63724U 25088A   25348.37685267 -.00011980  00000-0 -94793-3 0  9997
2 63724  51.8879 115.7854 0009731 175.8549 184.2504 14.99360487 35263
Epoch: 2025-12-14T09:02Z
TLE epoch observation values (Epoch: 2025-12-14T09:02:40.070Z)
Latitude
-0.00002°
Longitude
-103.17222°
Altitude
576.364 km
Speed
7.57 km/s
True Right ascension
07h 43m 08s
True Declination
0° 00' 00"
Sunlit
Object was in full shadow at epoch
Visualization orbit readout
Latitude
Unknown
Longitude
Unknown
Altitude
Unknown
Speed
Unknown
Apparent Right ascension
Unknown
Apparent Declination
Unknown
Sunlit
N/A
Visualization observer readout
Local Sidereal Time
15:12:31
Azimuth
Unknown
Elevation
Unknown
Doppler factor
Unknown
Orbital elements
Apogee altitude
576.089 km
Perigee altitude
562.567 km
Semi-major axis
6,947.465 km
Eccentricity
0.00097
Inclination
51.8879°
RAAN
115.7854°
Arg. of periapsis
175.8549°
True anomaly
184.24215°
Mean anomaly
184.2504°
Eccentric anomaly
184.24627°
Mean motion
3.74803 °/min
Orbital period
96.05 mins
BSTAR
-0.00094793
Loading maneuver chart data...
Computing Atmospheric mass density...
Loading historical data...
Loading historical data...
Loading historical data...
Loading historical data...
Loading historical data...
Loading historical data...
Loading historical data...

Documentation

Showing up to 5 results
|